Location: *
(16.6000°S, 59.5667°E)
Time: 23:57:39
(UTC+00:00)

Daily predictions for brighter satellites

Satellite Brightness Start Highest point End
(mag) Time Altitude Azimuth Time Altitude Azimuth Time Altitude Azimuth
Cosmos 2098 Rocket 4.1 14:06:35 10° N 14:13:29 67° E 14:19:14 10° SSE
CORIOLIS 4.2 14:11:28 10° SSE 14:16:57 76° ENE 14:22:20 10° N
Cosmos 1544 3.5 14:15:41 10° SSE 14:19:06 38° E 14:22:28 10° NNE
Intelsat 5-3 Rocket 3.8 14:17:33 10° W 14:21:56 75° SSW 14:33:42 10° ESE
SL-08 ROCKET BODY 4.4 14:17:06 10° N 14:23:08 80° E 14:29:19 10° S
YAOGAN 1 3.9 14:20:21 10° SE 14:23:29 19° E 14:26:35 10° NE
SL-16 R/B 3.1 14:20:17 10° NNE 14:24:55 27° ENE 14:29:36 10° SE
CSL-04 Rocket 4.5 14:26:52 10° SE 14:31:26 28° E 14:36:01 10° NNE
Delta 2 Rocket 3.7 14:31:25 10° WNW 14:34:41 48° SSW 14:38:12 10° SE
Centaur D-1A AC-31 3.6 14:16:27 10° WSW 14:35:25 46° NW 14:39:44 10° NE
Cosmos 2056 Rocket 3.6 14:30:28 10° S 14:35:45 61° ESE 14:41:04 10° NNE
GP-B 3.9 14:33:51 10° NE 14:37:40 29° E 14:41:32 10° SSE
USA 267 3.9 14:32:30 10° ENE 14:38:23 37° SE 14:44:18 10° SSW
Cosmos 1867 4.4 14:37:41 10° NW 14:42:55 54° WSW 14:48:10 10° SSE
Cosmos 1441 Rocket 3.7 14:39:01 10° SSW 14:42:58 64° W 14:46:49 10° N
CZ-4 R/B 1.4 14:39:55 10° SSE 14:43:43 50° E 14:47:26 10° N
Palapa B4 Rocket 3.0 14:40:35 10° WNW 14:45:31 65° NNE 14:48:01 21° E
NOSS 3-1 (A) 4.4 14:39:03 10° NNW 14:47:58 87° WSW 14:56:29 10° SSE
Cosmos 1624 Rocket 4.0 14:42:48 10° SSW 14:48:07 88° ESE 14:53:20 10° NNE
YAOGAN 6 2.6 14:46:30 10° SSE 14:49:59 52° E 14:53:29 10° N
SAR-Lupe-2 3.9 14:47:05 10° N 14:50:36 68° WNW 14:54:11 10° SSW
USA 32 4.2 14:46:31 10° NNE 14:51:31 47° E 14:56:34 10° SSE
Okean 2 3.4 14:48:12 10° N 14:52:15 60° E 14:56:24 10° SSE
Lacrosse 5 1.8 14:48:55 10° SSW 14:54:03 71° ESE 14:58:48 12° NE
Lacrosse 4 Rocket 3.4 14:52:57 10° NNE 14:53:26 12° NE 14:53:26 12° NE
Cosmos 1709 Rocket 4.4 14:49:33 10° N 14:55:53 71° W 15:02:17 10° S
ATLAS CENTAUR R/B 2.9 14:53:23 10° SSE 14:56:36 21° ESE 14:56:36 21° ESE
Cosmos 1269 Rocket 4.0 14:53:02 10° N 14:58:14 61° ENE 15:03:29 10° SSE
EXPRESS MD2 3.6 14:57:33 10° NNW 14:58:39 21° N 14:58:39 21° N
ATLAS 5 CENTAUR R/B 2.8 14:55:16 10° W 15:00:11 83° NNW 15:13:04 21° ENE
SL-4 R/B 2.4 14:59:24 10° SW 15:03:48 64° NW 15:06:59 16° NNE
SL-24 R/B 4.3 15:02:37 10° SSE 15:07:29 68° E 15:12:35 10° N
Cosmos 1455 Rocket 3.9 15:05:38 10° SSE 15:08:39 30° ESE 15:08:39 30° ESE
Cosmos 2082 3.6 15:04:16 10° SSW 15:10:00 84° ESE 15:15:43 10° NNE
Cosmos 2322 Rocket 2.1 15:11:58 10° NNW 15:17:35 82° ENE 15:23:16 10° SSE
Cosmos 2074 Rocket 3.9 15:12:01 10° N 15:18:05 61° E 15:24:13 10° SSE
ADEOS Rocket 3.5 15:15:51 10° NNE 15:23:35 72° ESE 15:31:00 10° S
GPS 2-12 Rocket1 2.9 15:21:05 10° WNW 15:25:37 87° S 15:26:14 67° ESE
Envisat 4.5 15:21:23 10° S 15:26:04 37° WSW 15:30:43 10° NW
SEDSat Delta rocket 4.4 15:23:08 10° NNW 15:25:13 22° N 15:25:13 22° N
Hubble Space Telescope 0.6 15:23:29 10° WSW 15:27:38 80° SSE 15:27:39 80° SSE
Cosmos 2227 Rocket 3.8 15:22:56 10° SW 15:27:59 34° WNW 15:33:00 10° NNW
Centaur AC-64 3.5 15:27:48 10° WSW 15:29:04 25° WSW 15:29:04 25° WSW
Cosmos 1452 Rocket 3.4 15:25:12 10° S 15:30:29 70° ESE 15:31:43 51° NE
Cosmos 1378 3.9 15:28:49 10° N 15:37:16 - S 15:31:29 44° NNW
Ariane H10+ 3.2 15:30:52 10° WNW 15:34:42 19° NNW 15:34:54 19° NNW
Cosmos 2297 Rocket 4.4 15:34:23 10° SW 15:38:51 24° WNW 15:43:18 10° NNW
Atlas Centaur 2 2.6 15:41:18 10° W 15:43:48 32° WNW 15:43:48 32° WNW
CZ-3C R/B 2.0 15:42:07 10° W 15:45:48 61° S 15:47:03 52° SE
Cosmos 2360 Rocket 2.9 15:42:49 10° N 15:46:17 38° N 15:46:17 38° N
Gbstr 26 Del rocket 3.4 15:44:56 10° SW 15:49:07 74° SW 15:49:07 74° SW
Cosmos 2184 Rocket 4.5 15:49:50 10° NNW 15:56:02 60° W 16:02:22 10° S
Ariane Rocket 4.5 16:03:28 10° S 16:10:35 30° NW 16:13:15 10° NNW
SL-16 R/B 4.3 16:04:19 10° WNW 16:08:48 24° WSW 16:13:19 10° SSW
USA 267 4.3 16:19:19 32° NNW 16:21:10 38° NW 16:27:09 10° WSW
ATLAS CENTAUR R/B 4.4 16:31:53 10° WSW 16:32:54 15° WSW 16:32:54 15° WSW
H-2A R/B 4.0 16:38:46 10° WSW 16:45:10 30° W 16:45:10 30° W
CZ-3B R/B 4.1 16:39:05 10° WSW 16:55:27 41° NW 16:56:50 40° NNW
H-2A ROCKET BODY 4.2 22:57:43 39° NE 22:57:43 39° NE 23:08:49 10° ENE
CZ-4C R/B 4.2 23:02:52 34° SSE 23:02:52 34° SSE 23:06:45 10° SSE
H-2A R/B 4.3 14:31:14 10° NW 23:02:16 75° SSE 23:08:59 10° ENE
USA 234 4.5 23:13:07 10° SSE 23:16:26 32° SSE 23:16:26 32° SSE
Cosmos 1656 4.4 23:49:02 10° S 23:54:30 51° ESE 23:59:58 10° NNE
